Зарасай

Литва     55°43′54″N   26°14′43″E
темп.,
°C
ветер,
м/с
пор.,
м/с
влажн.,
%
обл.,
%
осадки,
мм/ч
давл.,
гПа
погр.,
м
17 мая, пн
пн1700:00+12вюв31088100 0.0 1007202
03:00+11вюв3994100 0.3 1007214
06:00+13юв31095100 0.3 1007343
09:00+15ююв4884100 0.3 1007530
12:00+18ю4669100 0.3 10071179
15:00+15юв4791100 4.1 1007518
18:00+16вюв2590100 0.8 1006348
21:00+12в2598100 0.9 1005211
18 мая, вт
вт1800:00+11с2410079 0.2 1003132
03:00+11ссз2599100 0.3 1002189
06:00+12сз2599100 0.2 1001219
09:00+12сз2498100 0.2 1002274
12:00+13зсз2495100 0.0 1003320
15:00+14сз2392100 0.1 1003340
18:00+13сз239599 0.1 1004235
21:00+12ссз2598100 0.1 1004186
19 мая, ср
ср1900:00+11сз259940 0.0 1005110
03:00+10ссз279970 0.0 1005224
06:00+10ссз279896 0.0 1005282
09:00+13ссз3580100 0.0 1006574
12:00+16ссз4565100 0.0 10061067
15:00+16с575990 0.0 10061138
18:00+14с3870100 0.0 1006731
21:00+11ссз3994100 0.7 1007421
20 мая, чт
чт2000:00+10сз41097100 2.6 1006470
03:00+9сз51297100 5.4 1006568
06:00+9сз51298100 6.9 1005699
09:00+9сз51296100 13.9 1006892
12:00+9зсз51097100 3.9 1006753
15:00+10зсз41095100 8.8 1007904
18:00+10зсз31094100 3.4 1007728
21:00+10з2795100 3.6 1008273
21 мая, пт
пт2100:00+8зюз3993100 0.0 1010241
03:00+7зюз31093100 0.0 1011322
06:00+6зюз31094100 0.0 1012323
09:00+10зюз477691 0.0 1013529
12:00+13зюз465484 0.0 10141232
15:00+16зюз454542 0.0 10142077
18:00+13з45605 0.0 1013948
21:00+9з388297 0.0 1014273